User: anonymous   Login
Location: Unspecified
(0.0000°N, 0.0000°E)
Time: 23:30:39
(UTC+00:00)
Language:

Explorer 7 - Orbit

View from above orbital plane
View from above orbital plane
View from above satellite
View from above satellite

Ground track
Ground track

The orbit data is extracted from the following two-line orbital elements,

1 00022U 59009A   14298.08248529  .00005863  00000-0  50566-3 0   627
2 00022 050.2862 039.2490 0153095 315.1244 043.7406 14.89950916917013
Epoch (UTC): 25 October 2014 01:58:46
Eccentricity: 0.0153095
inclination: 50.2862°
perigee height: 491 km
apogee height: 705 km
right ascension of ascending node: 39.2490°
argument of perigee: 315.1244°
revolutions per day: 14.89950916
mean anomaly at epoch: 43.7406°
orbit number at epoch: 91701

The dashed part of the orbit path shows where the satellite is in the earth's shadow,  

DLR